Probability
55 55 48 45 42 42 39 39 35 32 29 23 19 19 16 16 16 10 6 6 6 6 3 3 3 0 0 0 0 0 0 0 0 0 0 0 0 0 0 0 0 0 0
55 48 45 42 39 39 35 35 32 26 23 19 19 23 19 19 13 13 10 10 6 6 3 3 3 0 0 0 0 0 0 0 0 0 0 0 0 0 0 0 0 0 0
52 48 48 39 35 32 32 29 23 23 23 19 19 19 16 10 10 10 10 6 6 6 3 3 3 3 0 0 0 0 0 0 0 0 0 0 0 0 0 0 0 0 0
52 48 48 35 32 32 29 26 23 23 23 23 16 13 13 10 6 6 6 6 6 6 6 6 3 3 0 0 0 0 0 0 0 0 0 0 0 0 0 0 0 0 0
52 52 42 39 32 26 26 23 19 23 23 16 13 10 6 6 6 6 6 6 6 6 6 6 6 6 0 0 0 0 0 0 0 0 0 0 0 0 0 0 0 0 0
52 48 45 32 29 26 26 23 19 19 16 13 13 10 6 3 3 3 3 3 3 6 6 6 6 6 3 0 0 0 0 0 0 0 0 0 0 0 0 0 0 0 0
42 45 35 32 29 26 26 26 23 13 6 6 6 3 3 3 3 3 3 3 3 3 3 6 6 6 0 0 0 0 0 0 0 0 0 0 0 0 0 0 0 0 0
45 39 35 32 29 26 26 26 13 6 6 6 6 6 3 3 3 3 3 3 3 3 3 3 3 0 0 0 0 0 0 0 0 0 0 0 0 0 0 0 0 0 0
45 35 32 32 29 29 26 23 16 10 6 6 6 6 3 3 3 3 3 3 3 3 3 3 0 0 0 0 0 0 0 0 0 0 0 0 0 0 0 0 0 0 0
35 32 32 32 32 26 23 19 16 10 6 6 6 3 3 3 3 3 0 3 3 3 3 3 0 0 0 0 0 0 0 0 0 0 0 0 0 0 0 0 0 0 0
29 26 26 29 26 26 19 19 10 6 6 6 6 3 3 3 3 0 0 3 3 3 3 3 3 0 0 0 0 0 0 0 0 0 0 0 0 0 0 0 0 0 0
29 23 26 23 19 26 23 10 6 6 6 6 3 3 3 3 3 0 0 3 3 3 3 3 3 0 0 0 0 0 0 0 0 0 0 0 0 0 0 0 0 0 0
26 16 19 19 16 13 16 6 6 6 6 6 3 3 3 3 3 0 0 0 0 3 3 3 0 0 0 0 0 0 0 0 0 0 0 0 0 0 0 0 0 0 0
19 16 19 19 16 13 13 6 6 6 6 3 3 3 3 3 0 0 0 0 0 0 0 0 0 0 0 0 0 0 0 0 0 0 0 0 0 0 0 0 0 0 0
23 19 19 16 16 13 10 6 6 6 6 3 3 3 3 3 3 0 0 0 0 0 0 0 0 0 0 0 0 0 0 0 0 0 0 0 0 0 0 0 0 0 0
26 23 16 16 13 6 6 0 0 0 0 0 0 3 3 3 3 0 0 0 0 0 0 0 0 0 0 0 0 0 0 0 0 0 0 0 0 0 0 0 0 0 0
26 19 19 16 10 10 3 3 0 0 0 0 0 0 0 0 0 0 0 0 0 0 0 0 0 0 0 0 0 0 0 0 0 0 0 0 0 0 0 0 0 0 0
23 19 16 13 13 6 6 3 0 0 0 0 0 0 0 0 0 0 0 0 0 0 0 0 0 0 0 0 0 0 0 0 0 0 0 0 0 0 0 0 0 0 0
19 13 13 16 13 6 6 3 0 0 0 0 0 0 0 0 0 0 0 0 0 0 0 0 0 0 0 0 0 0 0 0 0 0 0 0 0 0 0 0 0 0 0
13 13 10 3 6 3 3 3 0 0 0 0 0 0 0 0 0 0 0 0 0 0 0 0 0 0 0 0 0 0 0 0 0 0 0 0 0 0 0 0 0 0 0
3 3 3 3 3 3 3 3 0 0 0 0 0 0 0 0 0 0 0 0 0 0 0 0 0 0 0 0 0 0 0 0 0 0 0 0 0 0 0 0 0 0 0
3 0 0 0 0 3 3 0 0 0 0 0 0 0 0 0 0 0 0 0 0 0 0 0 0 0 0 0 0 0 0 0 0 0 0 0 0 0 0 0 0 0 0
0 0 0 0 0 0 0 0 0 0 0 0 0 0 0 0 0 0 0 0 0 0 0 0 0 0 0 0 0 0 0 0 0 0 0 0 0 0 0 0 0 0 0
6 3 0 0 0 0 0 0 0 0 0 0 0 0 0 0 0 0 0 0 0 0 0 0 0 0 0 0 0 0 0 0 0 0 0 0 0 0 0 0 0 0 0
6 3 3 0 0 0 0 0 0 0 0 0 0 0 0 0 0 0 0 0 0 0 0 0 0 0 0 0 0 0 0 0 0 0 0 0 0 0 0 0 0 0 0
6 3 3 0 0 0 0 0 0 0 0 0 0 0 0 0 0 0 0 0 0 0 0 0 0 0 0 0 0 0 0 0 0 0 0 0 0 0 0 0 0 0 0
Height
5912 5910 5908 5906 5905 5903 5901 5899 5897 5895 5893 5891 5889 5887 5884 5882 5880 5878 5876 5874 5871 5869 5867 5866 5864 5861 5860 5858 5856 5855 5854 5853 5851 5849 5847 5846 5844 5842 5840 5838 5836 5834 5832
5911 5909 5908 5905 5903 5901 5900 5898 5895 5893 5891 5889 5887 5885 5882 5880 5877 5875 5873 5871 5869 5866 5864 5863 5861 5859 5857 5855 5853 5851 5850 5848 5847 5845 5843 5841 5839 5837 5835 5832 5830 5828 5826
5910 5908 5906 5904 5902 5900 5898 5896 5894 5891 5889 5887 5885 5882 5880 5877 5875 5872 5870 5868 5866 5864 5861 5860 5858 5856 5854 5852 5850 5848 5846 5844 5842 5840 5838 5836 5834 5831 5829 5827 5825 5822 5820
5909 5907 5905 5903 5901 5899 5897 5894 5892 5889 5887 5885 5882 5880 5877 5875 5872 5870 5868 5865 5863 5861 5859 5857 5855 5853 5851 5848 5846 5844 5842 5840 5838 5836 5834 5831 5829 5826 5824 5821 5819 5816 5814
5907 5905 5903 5902 5899 5897 5894 5892 5890 5887 5885 5882 5879 5877 5874 5872 5870 5867 5865 5862 5860 5858 5855 5853 5852 5849 5847 5845 5843 5840 5838 5836 5833 5831 5829 5826 5823 5821 5818 5816 5813 5810 5807
5905 5903 5901 5899 5897 5895 5892 5890 5887 5885 5882 5880 5877 5875 5872 5869 5867 5864 5862 5859 5857 5855 5852 5850 5848 5846 5844 5841 5839 5836 5834 5831 5829 5826 5824 5821 5818 5815 5812 5809 5807 5804 5801
5902 5901 5899 5897 5895 5892 5890 5887 5885 5882 5880 5877 5875 5872 5869 5867 5864 5862 5859 5857 5854 5852 5849 5847 5845 5842 5840 5837 5834 5832 5829 5826 5824 5821 5818 5815 5812 5810 5807 5804 5800 5797 5795
5899 5897 5896 5894 5891 5889 5887 5884 5882 5879 5877 5875 5872 5869 5867 5864 5861 5859 5856 5853 5851 5848 5846 5843 5841 5838 5835 5833 5830 5827 5824 5821 5818 5815 5813 5810 5807 5804 5801 5798 5794 5791 5788
5895 5894 5892 5890 5888 5886 5883 5881 5879 5876 5874 5871 5869 5866 5863 5861 5858 5855 5852 5850 5847 5844 5842 5839 5836 5833 5831 5828 5825 5822 5819 5816 5813 5810 5807 5804 5801 5798 5795 5792 5788 5785 5781
5891 5889 5888 5886 5884 5882 5880 5877 5875 5873 5870 5868 5865 5862 5860 5857 5854 5851 5848 5846 5843 5840 5837 5834 5831 5828 5825 5822 5820 5816 5813 5810 5807 5804 5801 5798 5795 5792 5789 5786 5782 5779 5775
5886 5885 5883 5882 5880 5878 5875 5873 5871 5868 5866 5863 5861 5858 5855 5852 5849 5847 5844 5841 5838 5835 5832 5829 5826 5823 5820 5817 5814 5811 5808 5804 5801 5798 5795 5792 5789 5785 5782 5779 5776 5773 5769
5881 5879 5878 5876 5875 5873 5870 5868 5866 5863 5861 5859 5856 5853 5850 5847 5845 5842 5839 5836 5833 5830 5827 5824 5820 5817 5814 5811 5808 5804 5801 5798 5795 5792 5789 5785 5782 5779 5776 5773 5770 5766 5762
5875 5873 5872 5871 5869 5867 5865 5862 5860 5858 5855 5853 5851 5848 5845 5842 5839 5836 5833 5830 5827 5824 5821 5818 5814 5811 5808 5805 5801 5798 5795 5792 5789 5785 5782 5779 5776 5773 5770 5767 5763 5759 5755
5869 5867 5866 5864 5862 5860 5858 5856 5854 5852 5849 5847 5844 5842 5839 5836 5833 5830 5826 5824 5821 5818 5815 5811 5808 5805 5802 5799 5795 5792 5789 5785 5782 5779 5776 5773 5770 5766 5763 5760 5756 5752 5749
5861 5860 5859 5857 5855 5854 5852 5850 5847 5845 5843 5841 5838 5835 5832 5829 5827 5823 5820 5817 5814 5811 5808 5805 5802 5799 5796 5793 5789 5786 5783 5780 5776 5773 5769 5766 5763 5760 5756 5753 5750 5746 5742
5854 5852 5851 5850 5848 5846 5844 5843 5840 5839 5836 5834 5832 5829 5826 5823 5820 5816 5813 5811 5808 5805 5802 5799 5796 5793 5790 5787 5783 5780 5776 5773 5770 5767 5763 5760 5757 5753 5750 5746 5743 5739 5735
5845 5844 5843 5842 5840 5839 5837 5835 5834 5832 5829 5827 5824 5822 5819 5816 5813 5810 5807 5804 5801 5798 5795 5793 5790 5787 5783 5780 5776 5773 5770 5767 5763 5760 5757 5753 5750 5746 5743 5739 5736 5732 5728
5837 5836 5835 5834 5832 5831 5829 5828 5826 5824 5822 5819 5817 5815 5812 5809 5806 5803 5800 5798 5795 5792 5789 5786 5783 5780 5777 5773 5770 5766 5763 5760 5756 5753 5750 5746 5743 5739 5736 5732 5729 5725 5721
5828 5828 5827 5825 5824 5823 5821 5820 5818 5816 5814 5812 5810 5807 5805 5802 5799 5796 5793 5791 5787 5785 5782 5779 5776 5773 5770 5766 5763 5760 5756 5753 5750 5746 5743 5739 5736 5732 5729 5725 5721 5717 5714
5819 5819 5818 5817 5816 5814 5813 5812 5810 5808 5806 5804 5802 5800 5797 5795 5792 5789 5786 5783 5780 5778 5775 5772 5769 5766 5763 5759 5756 5753 5749 5746 5743 5739 5736 5732 5728 5725 5721 5717 5714 5710 5706
5810 5810 5809 5808 5807 5806 5805 5803 5801 5800 5798 5796 5794 5792 5789 5787 5784 5782 5779 5776 5773 5770 5768 5765 5762 5759 5756 5752 5749 5746 5742 5739 5735 5732 5728 5724 5721 5717 5713 5710 5706 5702 5698
5802 5801 5800 5799 5798 5797 5796 5794 5793 5791 5789 5788 5786 5783 5781 5779 5776 5774 5771 5768 5765 5763 5760 5757 5755 5752 5749 5745 5742 5738 5734 5731 5727 5724 5720 5716 5713 5709 5705 5702 5698 5694 5690
5793 5793 5792 5790 5789 5788 5786 5785 5784 5782 5781 5779 5777 5775 5773 5771 5768 5766 5763 5761 5758 5755 5752 5750 5747 5744 5741 5737 5734 5730 5727 5723 5719 5716 5712 5709 5705 5701 5697 5694 5690 5686 5682
5784 5784 5783 5782 5781 5779 5778 5776 5775 5774 5772 5771 5769 5767 5765 5763 5760 5758 5755 5753 5750 5747 5744 5742 5739 5736 5733 5729 5726 5722 5719 5715 5712 5708 5704 5701 5697 5693 5689 5685 5682 5678 5674
5775 5775 5774 5773 5772 5770 5769 5768 5766 5765 5764 5763 5761 5759 5757 5755 5752 5750 5747 5745 5742 5739 5736 5734 5731 5728 5725 5721 5718 5714 5711 5707 5703 5700 5696 5692 5689 5685 5681 5677 5673 5670 5666
5767 5766 5765 5764 5763 5762 5760 5759 5758 5757 5756 5754 5752 5751 5749 5747 5744 5742 5739 5737 5734 5731 5728 5726 5723 5720 5717 5713 5710 5706 5703 5699 5695 5691 5688 5684 5680 5677 5673 5669 5665 5661 5657
Wind_Speed
9 9 9 10 10 10 10 10 11 11 11 11 12 12 13 13 14 13 13 12 13 13 12 12 11 12 12 12 13 13 14 15 16 17 18 19 19 20 20 20 21 21 22
9 9 10 10 10 11 11 12 12 12 12 13 13 14 14 14 14 13 14 13 13 13 13 12 12 12 12 12 13 13 14 15 17 18 19 19 19 20 20 21 21 22 23
9 10 10 11 11 11 12 12 13 13 13 14 14 14 14 14 14 14 14 14 14 13 13 13 13 13 13 13 13 14 15 16 17 18 18 19 19 20 21 21 22 23 24
9 10 11 12 12 12 12 13 14 14 14 14 15 15 14 14 14 14 14 14 14 13 14 13 13 14 14 14 14 15 16 16 17 18 19 19 21 21 22 22 23 23 24
10 11 12 12 13 13 13 14 14 14 15 15 15 14 14 15 15 15 14 15 14 14 14 14 14 15 15 16 16 16 17 17 18 18 19 20 21 22 22 23 23 24 25
12 12 13 13 14 15 15 15 14 14 15 15 16 15 15 15 15 15 15 14 14 14 14 14 15 15 16 17 17 17 18 18 19 20 20 21 21 22 22 23 24 25 26
13 13 14 14 15 15 15 15 15 15 15 15 16 16 16 16 16 15 15 15 15 16 15 15 16 16 17 17 18 18 19 19 20 21 21 22 22 23 23 24 25 26 26
13 14 15 15 15 15 16 16 16 16 16 16 16 17 17 17 17 17 17 17 17 17 17 17 18 18 19 19 19 20 20 21 21 22 22 23 23 23 24 24 25 25 25
15 16 16 16 16 16 17 17 17 16 17 17 18 18 18 17 17 18 18 18 18 18 19 19 20 20 20 21 21 21 21 22 22 22 23 23 23 23 24 24 24 24 25
17 18 17 17 17 18 18 18 17 18 18 18 18 19 19 19 19 19 19 19 20 20 20 20 21 21 21 22 22 22 22 22 23 23 24 24 24 23 23 23 24 25 25
19 19 18 18 19 19 18 18 18 19 19 19 19 20 20 20 20 20 21 21 22 22 22 22 22 23 23 23 23 23 23 24 24 24 24 24 24 23 23 24 25 26 26
20 20 20 20 20 20 20 20 20 20 20 20 20 20 21 21 21 22 22 23 23 23 23 24 24 24 24 24 24 24 24 24 24 25 24 24 24 23 24 24 25 27 27
21 22 22 22 22 21 21 22 21 22 22 22 22 22 22 23 23 23 24 24 24 24 24 25 25 24 24 24 25 25 25 25 25 25 25 25 25 25 25 25 26 26 27
23 24 24 24 23 23 23 23 23 23 23 23 23 23 23 24 24 24 24 24 24 24 25 25 25 25 25 24 25 25 25 25 25 26 26 25 25 26 26 26 26 27 27
25 25 25 25 25 25 24 24 24 24 24 24 24 24 24 25 25 25 25 24 24 25 25 25 25 25 25 25 25 25 25 25 25 25 25 25 25 25 26 26 26 27 28
27 27 26 26 26 25 24 24 24 24 25 25 24 25 26 25 25 25 24 25 25 25 25 25 25 25 25 26 26 26 26 26 26 25 25 25 25 26 26 27 27 27 27
27 27 27 27 27 26 25 25 25 25 25 25 25 26 26 26 26 26 26 26 26 25 25 25 25 25 26 26 26 25 25 26 26 26 25 26 26 26 27 27 27 28 28
28 28 28 27 27 27 26 26 26 26 25 25 26 26 27 26 26 26 27 27 26 25 25 25 25 25 25 26 26 26 26 26 26 26 26 26 26 27 27 27 28 28 28
29 29 28 28 28 28 27 27 27 26 26 26 27 27 27 26 26 27 27 27 26 25 25 25 25 25 26 26 26 26 27 27 27 27 27 27 27 28 28 28 28 28 28
30 30 30 29 28 28 28 28 28 27 27 27 27 27 27 27 26 27 27 27 26 26 25 25 26 26 27 27 27 27 27 28 27 27 28 28 29 29 29 29 28 29 29
30 30 30 29 28 27 28 28 28 28 28 27 27 27 27 27 27 27 27 27 26 26 26 26 27 27 27 27 27 28 28 29 28 28 29 29 29 29 29 29 29 29 29
29 29 29 30 28 28 29 29 29 29 28 27 28 28 28 28 27 27 26 26 26 27 27 27 27 27 27 27 28 29 29 29 28 28 29 29 30 29 29 29 29 29 29
29 29 30 29 29 29 29 29 29 28 28 28 28 28 28 28 27 27 27 26 26 27 27 26 27 27 28 28 29 29 29 29 29 29 29 30 30 29 29 29 29 30 30
29 29 29 29 29 29 29 28 27 27 28 27 27 27 27 27 27 27 27 27 27 27 27 27 27 28 28 29 29 29 29 29 30 30 29 30 30 30 30 30 30 30 30
29 29 28 28 28 28 27 27 26 27 27 27 27 27 27 27 28 28 27 27 27 28 27 27 27 28 28 28 28 29 29 30 30 30 30 30 30 30 30 31 31 30 30
27 27 27 26 26 26 26 26 26 26 27 27 27 27 28 28 28 28 27 27 27 27 26 27 27 27 27 28 29 30 30 30 31 31 30 30 31 31 31 31 31 31 31
Wind_Direction
357 359 359 360 359 356 351 347 345 344 341 339 337 336 336 337 336 332 328 327 324 321 320 320 317 314 309 304 298 292 287 285 286 288 287 286 288 287 288 288 286 285 285
355 358 358 354 353 352 349 345 341 339 337 335 334 333 333 332 330 327 328 326 324 322 320 316 314 314 313 310 302 297 294 291 289 291 290 289 289 289 290 288 287 287 287
345 349 352 351 347 346 344 342 340 338 335 333 332 333 332 332 330 326 328 326 322 322 322 319 315 316 313 311 304 299 297 295 294 295 293 294 294 293 292 291 290 289 288
336 341 342 343 342 339 334 334 336 336 335 333 332 331 330 329 327 325 325 326 323 320 320 319 317 317 317 314 309 304 301 298 297 296 295 295 295 294 293 293 293 292 292
326 332 335 334 334 333 331 330 331 333 333 332 331 329 328 329 327 325 324 326 324 322 320 318 316 317 316 313 310 306 304 302 299 298 297 298 297 296 295 295 295 296 295
319 323 325 326 327 326 327 327 328 330 331 333 332 331 330 330 331 329 326 326 325 323 321 317 315 317 317 315 312 309 304 302 300 300 299 299 298 299 299 298 299 299 299
310 314 316 318 320 320 323 327 331 332 332 332 331 330 329 329 329 327 326 325 322 320 319 316 315 318 318 316 313 311 308 305 303 303 302 301 300 300 300 300 300 300 300
302 306 309 311 314 318 320 323 324 326 327 329 329 328 328 327 326 324 324 323 321 319 317 316 316 316 315 314 312 310 308 307 306 306 305 304 303 303 302 302 302 302 302
297 302 304 307 309 313 316 318 318 318 321 323 325 325 324 324 325 324 322 321 320 317 315 314 314 315 314 313 311 310 309 309 308 307 307 306 305 305 305 305 305 306 307
294 299 301 303 305 309 311 313 313 314 315 318 321 322 321 319 319 319 317 317 317 316 315 314 314 314 314 313 312 311 310 309 309 308 306 306 305 305 305 306 306 307 307
293 297 297 301 304 306 306 308 309 310 311 312 315 317 318 317 316 317 315 314 314 313 313 313 313 313 312 312 312 311 309 309 309 308 307 306 306 306 305 306 307 307 308
291 294 295 298 300 302 304 305 305 306 307 308 310 311 314 314 313 313 313 312 311 310 310 311 312 312 311 311 310 310 309 309 308 308 307 306 306 305 305 305 307 309 309
290 292 293 296 297 298 299 301 303 304 304 304 306 307 309 310 309 309 310 310 310 309 309 310 311 312 311 311 311 310 310 310 308 307 306 305 304 304 304 306 308 309 309
287 290 292 294 295 296 297 298 299 301 302 303 304 306 308 309 309 308 308 308 309 308 308 309 309 310 310 310 311 311 310 309 308 307 306 306 305 305 305 307 308 309 309
284 287 289 290 291 293 294 296 297 298 300 301 303 305 307 307 307 306 306 307 307 308 309 310 309 309 310 311 312 312 311 310 311 310 308 307 307 306 306 307 308 310 310
282 284 285 286 288 289 291 293 295 296 297 299 301 305 307 306 306 305 305 306 306 306 308 309 309 307 308 310 311 311 310 310 310 308 307 307 307 306 307 307 308 309 310
279 281 283 284 285 286 288 290 292 294 296 299 301 304 306 306 305 304 304 305 305 304 306 307 308 308 308 309 310 310 310 310 309 307 306 307 307 306 306 306 307 308 309
277 279 281 283 283 285 287 289 290 292 295 298 301 302 304 305 306 305 304 304 304 303 305 306 307 308 309 310 310 309 310 310 309 308 307 306 306 306 305 305 306 306 307
276 277 279 281 282 283 286 289 291 292 294 295 298 300 302 305 305 306 305 303 302 302 304 306 307 307 308 309 309 309 309 309 308 308 307 307 307 306 305 305 305 305 305
278 278 278 279 281 283 285 288 290 292 293 294 295 297 299 301 303 304 304 303 301 301 304 305 305 306 307 308 308 308 308 308 307 307 307 307 307 306 305 304 305 306 305
278 279 280 280 280 282 284 286 288 290 292 292 293 296 297 299 300 300 301 302 302 301 301 302 304 305 306 308 308 307 307 307 306 306 307 308 307 307 305 304 305 306 306
276 278 280 284 282 281 283 285 286 287 289 291 292 293 295 298 299 299 300 300 300 300 300 301 302 304 305 306 307 308 307 306 306 306 306 306 306 306 306 305 305 305 305
276 278 281 283 283 283 283 284 285 286 288 289 289 291 295 297 298 298 299 300 299 299 300 301 302 304 305 306 307 308 308 307 306 306 306 306 306 305 305 305 305 305 304
276 278 280 283 284 285 285 285 284 285 287 289 290 292 294 294 296 297 298 297 297 299 300 301 301 301 302 304 306 307 306 305 305 305 305 305 305 305 305 305 305 305 305
276 278 280 282 283 285 285 283 283 284 286 288 289 291 292 293 294 296 297 297 298 299 299 299 300 301 302 303 305 306 306 306 306 305 304 303 303 304 305 305 305 304 305
276 278 280 281 282 284 284 283 283 284 285 286 288 289 291 293 294 295 296 296 297 298 298 299 301 302 303 305 306 306 306 306 306 306 305 304 303 303 303 304 304 304 305